Location: *
(43.9905°S, 176.4941°W)
Time: 18:03:47
(UTC+00:00)

Cosmos 1328 - Pass Details

Date: 08 December 2019
Orbit: 535 x 549 km, 82.5° (Epoch: 27 January)

Event Time Altitude Azimuth Distance (km) Brightness Sun altitude
Rises 11:28:47 0° 190° (S) 2,744 8.8 -23.3°
Reaches altitude 10° 11:30:58 10° 190° (S) 1,840 7.6 -23.3°
Enters shadow 11:34:50 78° 235° (SW) 567 3.8 -23.3°
